Flag for Germany Weather past 2 weeks in Ahaus, North Rhine-Westphalia, Germany

Now
77 °F

Sunny.


Feels Like: 78 °F
Forecast: 60 / 75 °F
Wind: 5 mph from Southwest

Location: Twenthe

Current Time: Sep 18, 2014 at 5:42:33 PM

Latest Report: Sep 18, 2014 at 5:00 PM


Visibility: 16 mi

Pressure: 29.84 "Hg

Humidity: 59%

Dew point: 61 °F

Location of AhausLocation

Historic Weather in Ahaus — Graph

°F

Ahaus temperature yesterday

Maximum temperature yesterday: 75 °F (at 3:00 PM)
Minimum temperature yesterday: 56 °F (at 6:00 AM)
Average temperature yesterday: 66 °F

Past Weeks' High & Low Weather Summary

 TemperatureHumidityPressure
High78 °F (Sep 18, 4:00 PM)100% (Sep 5, 7:00 AM)30.28 "Hg (Sep 5, 7:00 AM)
Low47 °F (Sep 12, 6:00 AM)53% (Sep 8, 4:00 PM)29.84 "Hg (Sep 18, 4:00 PM)
Average61 °F85%30.06 "Hg
* Reported Sep 3 4:00 PM — Sep 18 4:00 PM, Ahaus, Weather by CustomWeather, © 2014

Note: Actual official high and low records may vary slightly from our data, if they occured in-between our weather recording intervals... More about our weather records

Advertising

Ahaus weather history for previous 24 hours

 ConditionsComfort  
Time TempWeatherWind HumidityBarometerVisibility
4:00 PM
Sep 18
78 °FSunny.3 mph55%29.84 "Hg15 mi
3:00 PM77 °FPassing clouds.3 mph54%29.84 "Hg13 mi
2:00 PM76 °FPassing clouds.3 mph53%29.85 "Hg19 mi
1:00 PM75 °FSunny.3 mph59%29.85 "Hg16 mi
12:00 PM73 °FPassing clouds.3 mph65%29.85 "Hg14 mi
11:00 AM70 °FSunny.2 mph72%29.86 "Hg11 mi
10:00 AM65 °FSunny.2 mph79%29.88 "Hg7 mi
9:00 AM61 °FFog.1 mph86%29.87 "Hg5 mi
8:00 AM58 °FFog.N/A94%29.86 "Hg4 mi
7:00 AM58 °FFog.N/A95%29.86 "Hg3 mi
6:00 AM57 °FFog.1 mph96%29.86 "Hg3 mi
5:00 AM58 °FFog.N/A94%29.86 "Hg4 mi
4:00 AM57 °FFog.1 mph95%29.87 "Hg4 mi
3:00 AM61 °FClear.2 mph89%29.88 "Hg6 mi
2:00 AM62 °FClear.3 mph86%29.88 "Hg7 mi
1:00 AM63 °FClear.3 mph84%29.88 "Hg7 mi
12:00 AM63 °FClear.3 mph84%29.88 "Hg8 mi
11:00 PM
Sep 17
64 °FClear.3 mph83%29.89 "Hg9 mi
10:00 PM64 °FClear.3 mph81%29.89 "Hg11 mi
9:00 PM65 °FClear.3 mph79%29.90 "Hg12 mi
8:00 PM68 °FClear.2 mph73%29.89 "Hg14 mi
7:00 PM71 °FPassing clouds.2 mph69%29.88 "Hg16 mi
6:00 PM74 °FPassing clouds.3 mph61%29.88 "Hg17 mi
5:00 PM75 °FPassing clouds.3 mph56%29.88 "Hg17 mi
Weather by CustomWeather, © 2014

See weather overviewHow to use our weather pages